Location: Lucerne Valley
(34.4439°N, 116.9669°E)
Time: 17:37:39
(UTC-07:00)

Envisat - Pass Details

Date: 16 October 2017
Orbit: 764 x 766 km, 98.2° (Epoch: 22 October)

Event Time Altitude Azimuth Distance (km) Brightness Sun altitude
Exits shadow 04:24:33 20° 24° (NNE) 1,734 4.6 -23.0°
Drops below altitude 10° 04:26:20 10° 10° (N) 2,304 5.4 -23.3°
Sets 04:28:52 0° 0° (N) 3,234 6.3 -23.9°
